Offutt Air Force Base, NE

1:48 AM CST on February 09, 2016 (GMT -0600)
Offutt Air Force Base

Weather History for KOFF - February, 2014

Change the Weather History Date:

Tuesday, February 25, 2014

  Actual Average Record
Temperature  
Mean Temperature 15 °F -  
Max Temperature 21 °F 37 °F 64 °F (1998)
Min Temperature 8 °F 21 °F -2 °F (2003)
Degree Days  
Heating Degree Days 50    
Moisture  
Dew Point 6 °F    
Average Humidity 71    
Maximum Humidity 100    
Minimum Humidity 50    
Precipitation  
Precipitation 0.01 in - - ()
Sea Level Pressure  
Sea Level Pressure 30.45 in    
Wind  
Wind Speed 10 mph (NNW)    
Max Wind Speed 18 mph    
Max Gust Speed 26 mph    
Visibility 10 miles    
Events Snow    
Averages and records for this station are not official NWS values.
T = Trace of Precipitation, MM = Missing Value Source: NWS Daily Summary

Daily Weather History Graph

Daily Weather History Graph

Search for Another Location

Airport or City:

Trip Planner

Search our weather history database for the weather conditions in past years. The results will help you decide how hot, cold, wet, or windy it might be!

Date:

Astronomy

Feb. 25, 2014 Rise Set
Actual Time 7:03 AM CST 6:09 PM CST
Civil Twilight 6:36 AM CST 6:37 PM CST
Nautical Twilight 6:04 AM CST 7:09 PM CST
Astronomical Twilight 5:32 AM CST 7:41 PM CST
Moon 4:01 AM CST (2/25) 2:15 PM CST (2/25)
Length of Visible Light 12h 01m
Length of Day
11h 06m
Waning Crescent, 18% of the Moon is Illuminated
Feb 25
Waning Crescent
Mar 1
New
Mar 8
First Quarter
Mar 16
Full
Mar 23
Last Quarter

Hourly Weather History & Observations

Time (CST) Temp. Windchill Dew Point Humidity Pressure Visibility Wind Dir Wind Speed Gust Speed Precip Events Conditions
12:21 AM 21.2 °F 16.4 °F 21.2 °F 100% 30.31 in 10.0 mi NNE 3.5 mph - N/A Snow Light Snow
12:58 AM 21.2 °F 12.6 °F 20.8 °F 99% 30.39 in 10.0 mi North 6.9 mph - 0.00 in Snow Light Snow
1:21 AM 21.2 °F 12.6 °F 21.2 °F 100% 30.34 in 10.0 mi North 6.9 mph - N/A Snow Light Snow
1:42 AM 21.2 °F 11.7 °F 19.4 °F 93% 30.34 in 10.0 mi North 8.1 mph - N/A Snow Light Snow
1:58 AM 20.3 °F 11.5 °F 18.7 °F 93% 30.40 in 10.0 mi North 6.9 mph - 0.00 in Snow Light Snow
2:58 AM 18.9 °F 8.0 °F 16.3 °F 90% 30.43 in 10.0 mi North 9.2 mph - 0.00 in Snow Light Snow
3:04 AM 17.6 °F 4.3 °F 15.8 °F 93% 30.36 in 10.0 mi North 12.7 mph - N/A   Overcast
3:58 AM 16.9 °F 4.8 °F 13.3 °F 86% 30.45 in 10.0 mi North 10.4 mph - 0.00 in Snow Light Snow
4:58 AM 15.8 °F 1.4 °F 12.2 °F 86% 30.44 in 10.0 mi North 13.8 mph 21.9 mph 0.00 in Snow Light Snow
5:58 AM 12.9 °F -3.4 °F 7.2 °F 78% 30.46 in 10.0 mi North 16.1 mph 23.0 mph 0.00 in   Overcast
6:21 AM 12.2 °F -4.8 °F 6.8 °F 79% 30.38 in 10.0 mi North 17.3 mph 23.0 mph N/A   Scattered Clouds
6:28 AM 12.2 °F -2.5 °F 6.8 °F 79% 30.38 in 10.0 mi North 12.7 mph 23.0 mph N/A   Mostly Cloudy
6:31 AM 12.2 °F -1.8 °F 6.8 °F 79% 30.39 in 10.0 mi North 11.5 mph 23.0 mph N/A Snow Light Snow
6:36 AM 12.2 °F 0.7 °F 6.8 °F 79% 30.39 in 10.0 mi NNW 8.1 mph 17.3 mph N/A   Mostly Cloudy
6:58 AM 11.7 °F 0.0 °F 6.8 °F 81% 30.46 in 10.0 mi North 8.1 mph - N/A   Overcast
7:08 AM 12.2 °F -1.0 °F 6.8 °F 79% 30.38 in 10.0 mi North 10.4 mph - N/A Snow Light Snow
7:38 AM 10.4 °F -3.3 °F 6.8 °F 85% 30.40 in 6.0 mi North 10.4 mph - N/A   Overcast
7:47 AM 10.4 °F -4.1 °F 5.0 °F 79% 30.41 in 10.0 mi North 11.5 mph - N/A   Overcast
7:58 AM 10.4 °F -1.5 °F 5.4 °F 80% 30.48 in 10.0 mi North 8.1 mph - 0.00 in   Overcast
8:03 AM 10.4 °F -0.4 °F 5.0 °F 79% 30.41 in 10.0 mi NNW 6.9 mph - N/A   Overcast
8:23 AM 10.4 °F -4.8 °F 3.2 °F 73% 30.40 in 10.0 mi North 12.7 mph - N/A   Scattered Clouds
8:36 AM 10.4 °F -3.3 °F 1.4 °F 67% 30.41 in 10.0 mi North 10.4 mph - N/A   Overcast
8:58 AM 9.5 °F -5.2 °F -2.4 °F 59% 30.48 in 10.0 mi North 11.5 mph - N/A   Overcast
9:58 AM 9.7 °F -5.0 °F -3.3 °F 56% 30.51 in 10.0 mi North 11.5 mph 20.7 mph N/A   Overcast
10:58 AM 10.4 °F -3.3 °F -2.7 °F 55% 30.53 in 10.0 mi North 10.4 mph 18.4 mph N/A   Overcast
11:58 AM 11.3 °F -0.4 °F -2.0 °F 55% 30.54 in 10.0 mi North 8.1 mph - N/A   Mostly Cloudy
12:58 PM 12.9 °F 0.7 °F -1.1 °F 54% 30.51 in 10.0 mi WNW 9.2 mph - N/A   Scattered Clouds
1:06 PM 12.2 °F -0.2 °F -2.2 °F 53% 30.44 in 10.0 mi NNW 9.2 mph - N/A Snow Light Snow
1:29 PM 14.0 °F 2.0 °F -0.4 °F 53% 30.42 in 10.0 mi NNW 9.2 mph - N/A   Partly Cloudy
1:58 PM 14.7 °F 1.4 °F -0.4 °F 51% 30.48 in 10.0 mi NNW 11.5 mph 17.3 mph 0.00 in   Scattered Clouds
2:58 PM 17.2 °F 6.0 °F 1.4 °F 50% 30.46 in 10.0 mi NNW 9.2 mph - N/A   Partly Cloudy
3:58 PM 16.9 °F 2.8 °F 1.9 °F 52% 30.45 in 10.0 mi NNW 13.8 mph 21.9 mph N/A   Clear
4:58 PM 16.5 °F 0.8 °F 2.1 °F 53% 30.45 in 10.0 mi NW 17.3 mph - N/A   Mostly Cloudy
5:58 PM 15.1 °F 0.5 °F 1.0 °F 54% 30.47 in 10.0 mi NW 13.8 mph - N/A   Partly Cloudy
6:58 PM 14.4 °F -2.0 °F -0.4 °F 52% 30.51 in 10.0 mi NNW 17.3 mph 24.2 mph N/A   Clear
7:58 PM 13.8 °F -2.7 °F 0.1 °F 55% 30.53 in 10.0 mi NW 17.3 mph 26.5 mph N/A   Clear
8:58 PM 13.1 °F -4.2 °F 0.9 °F 58% 30.56 in 10.0 mi NNW 18.4 mph 26.5 mph N/A   Clear
9:58 PM 12.4 °F -2.3 °F 1.4 °F 62% 30.56 in 10.0 mi NW 12.7 mph 19.6 mph N/A   Clear
10:58 PM 10.8 °F -2.8 °F 1.2 °F 65% 30.58 in 10.0 mi NNW 10.4 mph - N/A   Clear
11:58 PM 8.4 °F -4.9 °F -3.6 °F 58% 30.58 in 10.0 mi NW 9.2 mph - N/A   Clear